Location: Vigevano
(45.3170°N, 8.8500°E)
Time: 20:04:40
(UTC+01:00)

ISS - Visible Passes

Search period start: 25 March 2019 00:00
Search period end: 04 April 2019 01:00
Orbit: 408 x 411 km, 51.6° (Epoch: 26 March)

Date Brightness Start Highest point End Pass type
(mag) Time Alt. Az. Time Alt. Az. Time Alt. Az.
25 Mar -2.7 20:16:49 10° W 20:19:59 42° NNW 20:21:39 23° NE visible
25 Mar -0.2 21:54:16 10° WNW 21:54:25 11° WNW 21:54:25 11° WNW visible
26 Mar -3.3 19:25:58 10° WSW 19:29:14 60° NNW 19:32:31 10° ENE visible
26 Mar -1.8 21:03:23 10° WNW 21:05:59 26° NNW 21:05:59 26° NNW visible
27 Mar -2.1 20:12:26 10° WNW 20:15:25 30° N 20:17:28 16° NE visible
27 Mar -0.5 21:49:40 10° NW 21:50:14 13° NW 21:50:14 13° NW visible
28 Mar -2.4 19:21:29 10° W 19:24:35 36° NNW 19:27:41 10° NE visible
28 Mar -2.0 20:58:53 10° NW 21:01:37 26° N 21:01:37 26° N visible
29 Mar -2.0 20:08:00 10° WNW 20:10:52 26° N 20:12:58 15° NE visible
29 Mar -0.7 21:44:52 10° NW 21:45:43 16° NW 21:45:43 16° NW visible
30 Mar -2.1 19:17:03 10° WNW 19:19:58 28° N 19:22:53 10° NE visible
30 Mar -2.4 20:54:09 10° NW 20:57:02 31° N 20:57:02 31° N visible
31 Mar -2.2 21:03:22 10° NW 21:06:16 27° N 21:08:19 15° ENE visible
31 Mar -1.0 22:39:57 10° WNW 22:41:04 19° NW 22:41:04 19° NW visible
01 Apr -3.1 21:49:14 10° NW 21:52:20 46° NNE 21:52:20 46° NNE visible
02 Apr -2.7 20:58:30 10° NW 21:01:35 35° NNE 21:03:36 18° ENE visible
02 Apr -1.3 22:35:04 10° WNW 22:36:21 21° WNW 22:36:21 21° WNW visible
03 Apr -4.0 21:44:15 10° WNW 21:47:34 87° NNE 21:47:39 85° E visible
